| time (UTC) | temp C | wind direction | speed KPH | gust KPH | rain 1hr cm | rain 24hr cm | rain mn cm | humidity % | barometer mb |
| 20260503050024 | 7 | 309 | 0.0 | 0.0 | 0.00 | 0.36 | 0.36 | 89 | 1015.1 |
| 20260503044602 | 7 | 309 | 0.0 | 0.0 | 0.00 | 0.36 | 0.36 | 89 | 1015.3 |
| 20260503043050 | 7 | 309 | 0.0 | 0.0 | 0.00 | 0.36 | 0.36 | 89 | 1015.3 |
| 20260503041515 | 7 | 309 | 0.0 | 0.0 | 0.00 | 0.36 | 0.36 | 88 | 1015.1 |
| 20260503040023 | 8 | 309 | 0.0 | 0.0 | 0.00 | 0.36 | 0.36 | 88 | 1015.0 |
| 20260503034511 | 8 | 309 | 0.0 | 0.0 | 0.00 | 0.36 | 0.36 | 87 | 1014.9 |
| 20260503033006 | 8 | 309 | 0.0 | 0.0 | 0.00 | 0.36 | 0.36 | 87 | 1014.9 |
| 20260503031504 | 8 | 309 | 0.0 | 0.0 | 0.00 | 0.36 | 0.36 | 87 | 1014.7 |
| 20260503030003 | 8 | 309 | 0.0 | 0.0 | 0.00 | 0.36 | 0.36 | 87 | 1014.6 |
| 20260503024603 | 9 | 309 | 0.0 | 0.0 | 0.00 | 0.36 | 0.36 | 87 | 1014.4 |
| 20260503023058 | 9 | 309 | 0.0 | 0.0 | 0.00 | 0.36 | 0.36 | 87 | 1014.3 |
| 20260503021606 | 9 | 309 | 0.0 | 0.0 | 0.00 | 0.36 | 0.36 | 86 | 1014.1 |
| 20260503020106 | 9 | 309 | 0.0 | 0.0 | 0.00 | 0.36 | 0.36 | 86 | 1014.1 |
| 20260503014529 | 9 | 309 | 0.0 | 0.0 | 0.00 | 0.36 | 0.36 | 86 | 1014.2 |
| 20260503013025 | 9 | 309 | 0.0 | 0.0 | 0.00 | 0.36 | 0.36 | 87 | 1014.1 |
| 20260503011529 | 10 | 309 | 0.0 | 0.0 | 0.00 | 0.36 | 0.36 | 88 | 1013.9 |
| 20260503010019 | 10 | 309 | 0.0 | 0.0 | 0.00 | 0.36 | 0.36 | 90 | 1013.6 |
| 20260503004519 | 10 | 309 | 0.0 | 0.0 | 0.00 | 0.36 | 0.36 | 92 | 1013.4 |
| 20260503003014 | 11 | 309 | 0.0 | 0.0 | 0.00 | 0.36 | 0.36 | 96 | 1013.1 |
| 20260503001511 | 11 | 309 | 0.0 | 0.0 | 0.00 | 0.36 | 0.36 | 98 | 1012.9 |
| 20260503000011 | 12 | 309 | 0.0 | 0.0 | 0.00 | 0.36 | 0.36 | 99 | 1012.7 |
| 20260502234528 | 12 | 310 | 0.0 | 0.0 | 0.00 | 0.36 | 0.36 | 98 | 1012.4 |
| 20260502233010 | 12 | 310 | 0.0 | 1.6 | 0.00 | 0.36 | 0.36 | 98 | 1012.3 |
| 20260502231542 | 12 | 290 | 0.0 | 1.6 | 0.00 | 0.36 | 0.36 | 98 | 1012.4 |
| 20260502230039 | 12 | 207 | 0.0 | 1.6 | 0.00 | 0.36 | 0.36 | 98 | 1012.2 |
| 20260502224536 | 12 | 158 | 0.0 | 0.0 | 0.00 | 0.36 | 0.36 | 98 | 1012.2 |
| 20260502223035 | 12 | 158 | 0.0 | 0.0 | 0.00 | 0.36 | 0.36 | 98 | 1012.2 |
| 20260502221537 | 13 | 244 | 0.0 | 1.6 | 0.00 | 0.36 | 0.36 | 97 | 1012.1 |
| 20260502220045 | 13 | 114 | 0.0 | 1.6 | 0.00 | 0.36 | 0.36 | 98 | 1011.9 |
| 20260502214531 | 13 | 174 | 0.0 | 0.0 | 0.00 | 0.36 | 0.36 | 97 | 1011.9 |
| 20260502213036 | 13 | 74 | 0.0 | 1.6 | 0.00 | 0.36 | 0.36 | 97 | 1011.8 |
| 20260502211530 | 13 | 99 | 0.0 | 1.6 | 0.00 | 0.36 | 0.36 | 95 | 1011.9 |
| 20260502210031 | 13 | 155 | 0.0 | 3.2 | 0.00 | 0.41 | 0.36 | 94 | 1011.8 |
| 20260502204529 | 13 | 72 | 0.0 | 3.2 | 0.00 | 0.41 | 0.36 | 93 | 1011.9 |
| 20260502203026 | 13 | 98 | 0.0 | 1.6 | 0.00 | 0.41 | 0.36 | 95 | 1012.0 |
| 20260502201535 | 13 | 94 | 0.0 | 3.2 | 0.00 | 0.41 | 0.36 | 91 | 1011.9 |
| 20260502200026 | 13 | 73 | 0.0 | 4.8 | 0.00 | 0.41 | 0.36 | 93 | 1011.9 |
| 20260502194535 | 13 | 82 | 0.0 | 3.2 | 0.00 | 0.41 | 0.36 | 94 | 1012.1 |
| 20260502193019 | 13 | 65 | 0.0 | 4.8 | 0.00 | 0.41 | 0.36 | 95 | 1012.3 |
| 20260502191520 | 13 | 68 | 0.0 | 3.2 | 0.00 | 0.41 | 0.36 | 96 | 1012.5 |
| 20260502190020 | 13 | 95 | 0.0 | 4.8 | 0.00 | 0.41 | 0.36 | 96 | 1012.5 |
| 20260502184523 | 13 | 80 | 0.0 | 4.8 | 0.00 | 0.41 | 0.36 | 96 | 1012.6 |
| 20260502183116 | 13 | 72 | 0.0 | 3.2 | 0.00 | 0.41 | 0.36 | 98 | 1012.7 |
| 20260502181511 | 12 | 73 | 0.0 | 4.8 | 0.00 | 0.41 | 0.36 | 99 | 1012.7 |
| 20260502163049 | 12 | 80 | 0.0 | 1.6 | 0.05 | 0.41 | 0.36 | 93 | 1013.8 |
| 20260502161530 | 11 | 48 | 0.0 | 1.6 | 0.03 | 0.38 | 0.33 | 95 | 1014.0 |
| 20260502151601 | 11 | 37 | 0.0 | 1.6 | 0.05 | 0.36 | 0.30 | 95 | 1013.7 |
| 20260502123008 | 11 | 198 | 0.0 | 0.0 | 0.03 | 0.10 | 0.05 | 91 | 1013.1 |
| 20260502121507 | 11 | 198 | 0.0 | 0.0 | 0.03 | 0.10 | 0.05 | 94 | 1012.7 |
| 20260502114503 | 11 | 153 | 0.0 | 0.0 | 0.03 | 0.08 | 0.03 | 93 | 1012.8 |
| 20260502113002 | 11 | 153 | 0.0 | 0.0 | 0.03 | 0.08 | 0.03 | 94 | 1012.9 |
| 20260502111600 | 11 | 153 | 0.0 | 0.0 | 0.03 | 0.08 | 0.03 | 95 | 1012.9 |
| 20260502110029 | 11 | 153 | 0.0 | 0.0 | 0.00 | 0.05 | 0.00 | 96 | 1013.1 |
| 20260502104525 | 11 | 153 | 0.0 | 0.0 | 0.00 | 0.05 | 0.00 | 95 | 1013.1 |
| 20260502103053 | 11 | 153 | 0.0 | 0.0 | 0.00 | 0.05 | 0.00 | 97 | 1013.1 |
| 20260502101552 | 11 | 153 | 0.0 | 0.0 | 0.00 | 0.05 | 0.00 | 95 | 1013.2 |
| 20260502070048 | 11 | 325 | 0.0 | 0.0 | 0.00 | 0.05 | 0.00 | 89 | 1012.1 |
| 20260502064542 | 11 | 325 | 0.0 | 0.0 | 0.00 | 0.05 | 0.00 | 89 | 1012.3 |
| 20260502063032 | 11 | 325 | 0.0 | 0.0 | 0.00 | 0.05 | 0.00 | 90 | 1012.4 |
| 20260502061530 | 11 | 325 | 0.0 | 0.0 | 0.00 | 0.05 | 0.00 | 90 | 1012.5 |
| 20260502060030 | 11 | 325 | 0.0 | 0.0 | 0.00 | 0.05 | 0.00 | 89 | 1012.6 |
| 20260502054558 | 11 | 325 | 0.0 | 0.0 | 0.00 | 0.05 | 0.00 | 91 | 1012.7 |
| 20260502053057 | 11 | 325 | 0.0 | 0.0 | 0.00 | 0.05 | 0.00 | 92 | 1012.8 |
| 20260502051550 | 11 | 325 | 0.0 | 0.0 | 0.00 | 0.05 | 0.00 | 92 | 1012.9 |